Time,TemperatureF,DewpointF,PressureIn,WindDirection,WindDirectionDegrees,WindSpeedMPH,WindSpeedGustMPH,Humidity,HourlyPrecipIn,Conditions,Clouds,dailyrainin,SoftwareType,DateUTC
2013-03-15 00:02:00,49.0,46.0,-100.00,West,270,3.0,4.0,92,-99.99,,,-99.99,,2013-03-15 07:02:00,
2013-03-15 00:12:00,49.0,46.0,-100.00,West,270,3.0,4.0,92,-99.99,,,-99.99,,2013-03-15 07:12:00,
2013-03-15 00:22:00,48.0,46.0,-100.00,South,180,0.0,3.0,92,-99.99,,,-99.99,,2013-03-15 07:22:00,
2013-03-15 00:32:00,48.0,46.0,-100.00,North,-999,0.0,0.0,92,-99.99,,,-99.99,,2013-03-15 07:32:00,
2013-03-15 00:42:00,48.0,46.0,-100.00,North,-999,0.0,0.0,92,-99.99,,,-99.99,,2013-03-15 07:42:00,
2013-03-15 00:52:00,48.0,45.0,-100.00,North,-999,0.0,0.0,92,-99.99,,,-99.99,,2013-03-15 07:52:00,
2013-03-15 01:02:00,48.0,45.0,-100.00,West,270,2.0,3.0,92,-99.99,,,-99.99,,2013-03-15 08:02:00,
2013-03-15 01:12:00,48.0,45.0,-100.00,West,270,2.0,3.0,92,-99.99,,,-99.99,,2013-03-15 08:12:00,
2013-03-15 01:22:00,48.0,45.0,-100.00,North,-999,0.0,0.0,92,-99.99,,,-99.99,,2013-03-15 08:22:00,
2013-03-15 01:32:00,47.0,45.0,-100.00,North,-999,0.0,0.0,92,-99.99,,,-99.99,,2013-03-15 08:32:00,
2013-03-15 01:42:00,47.0,45.0,-100.00,North,-999,0.0,0.0,92,-99.99,,,-99.99,,2013-03-15 08:42:00,
2013-03-15 01:52:00,47.0,45.0,-100.00,North,-999,0.0,0.0,92,-99.99,,,-99.99,,2013-03-15 08:52:00,
2013-03-15 02:02:00,47.0,45.0,-100.00,North,-999,0.0,0.0,92,-99.99,,,-99.99,,2013-03-15 09:02:00,
2013-03-15 02:12:00,47.0,45.0,-100.00,North,-999,0.0,0.0,92,-99.99,,,-99.99,,2013-03-15 09:12:00,
2013-03-15 02:22:00,47.0,45.0,-100.00,North,-999,0.0,0.0,92,-99.99,,,-99.99,,2013-03-15 09:22:00,
2013-03-15 02:33:00,47.0,45.0,-100.00,NW,315,0.0,1.0,92,-99.99,,,-99.99,,2013-03-15 09:33:00,
2013-03-15 02:42:00,47.0,45.0,-100.00,NW,315,0.0,1.0,92,-99.99,,,-99.99,,2013-03-15 09:42:00,
2013-03-15 02:53:00,47.0,45.0,-100.00,North,-999,0.0,0.0,92,-99.99,,,-99.99,,2013-03-15 09:53:00,
2013-03-15 03:02:00,48.0,45.0,-100.00,West,270,1.0,1.0,92,-99.99,,,-99.99,,2013-03-15 10:02:00,
2013-03-15 03:12:00,48.0,45.0,-100.00,West,270,1.0,1.0,92,-99.99,,,-99.99,,2013-03-15 10:12:00,
2013-03-15 03:23:00,48.0,46.0,-100.00,West,270,1.0,1.0,92,-99.99,,,-99.99,,2013-03-15 10:23:00,
2013-03-15 03:32:00,47.0,45.0,-100.00,North,-999,0.0,0.0,92,-99.99,,,-99.99,,2013-03-15 10:32:00,
2013-03-15 03:42:00,47.0,45.0,-100.00,North,-999,0.0,0.0,92,-99.99,,,-99.99,,2013-03-15 10:42:00,
2013-03-15 03:52:00,47.0,45.0,-100.00,SW,225,0.0,1.0,92,-99.99,,,-99.99,,2013-03-15 10:52:00,
2013-03-15 04:02:00,47.0,45.0,-100.00,SW,225,0.0,1.0,92,-99.99,,,-99.99,,2013-03-15 11:02:00,
2013-03-15 04:12:00,47.0,45.0,-100.00,SW,225,0.0,1.0,92,-99.99,,,-99.99,,2013-03-15 11:12:00,
2013-03-15 04:22:00,47.0,44.0,-100.00,North,-999,0.0,0.0,92,-99.99,,,-99.99,,2013-03-15 11:22:00,
2013-03-15 04:32:00,46.0,44.0,-100.00,North,-999,0.0,0.0,92,-99.99,,,-99.99,,2013-03-15 11:32:00,
2013-03-15 04:42:00,46.0,44.0,-100.00,North,-999,0.0,0.0,92,-99.99,,,-99.99,,2013-03-15 11:42:00,
2013-03-15 04:52:00,47.0,44.0,-100.00,North,-999,0.0,0.0,92,-99.99,,,-99.99,,2013-03-15 11:52:00,
2013-03-15 05:02:00,47.0,44.0,-100.00,North,-999,0.0,0.0,92,-99.99,,,-99.99,,2013-03-15 12:02:00,
2013-03-15 05:12:00,47.0,44.0,-100.00,North,-999,0.0,0.0,92,-99.99,,,-99.99,,2013-03-15 12:12:00,
2013-03-15 05:22:00,47.0,44.0,-100.00,North,-999,0.0,0.0,92,-99.99,,,-99.99,,2013-03-15 12:22:00,
2013-03-15 05:32:00,47.0,44.0,-100.00,North,-999,0.0,0.0,92,-99.99,,,-99.99,,2013-03-15 12:32:00,
2013-03-15 05:42:00,47.0,44.0,-100.00,North,-999,0.0,0.0,92,-99.99,,,-99.99,,2013-03-15 12:42:00,
2013-03-15 05:52:00,46.0,44.0,-100.00,North,-999,0.0,0.0,92,-99.99,,,-99.99,,2013-03-15 12:52:00,
2013-03-15 06:02:00,46.0,44.0,-100.00,North,-999,0.0,0.0,92,-99.99,,,-99.99,,2013-03-15 13:02:00,
2013-03-15 06:12:00,46.0,44.0,-100.00,North,-999,0.0,0.0,92,-99.99,,,-99.99,,2013-03-15 13:12:00,
2013-03-15 06:22:00,46.0,44.0,-100.00,North,-999,0.0,0.0,92,-99.99,,,-99.99,,2013-03-15 13:22:00,
2013-03-15 06:32:00,46.0,44.0,-100.00,North,-999,0.0,0.0,92,-99.99,,,-99.99,,2013-03-15 13:32:00,
2013-03-15 06:42:00,46.0,44.0,-100.00,North,-999,0.0,0.0,92,-99.99,,,-99.99,,2013-03-15 13:42:00,
2013-03-15 06:52:00,46.0,44.0,-100.00,North,-999,0.0,0.0,92,-99.99,,,-99.99,,2013-03-15 13:52:00,
2013-03-15 07:02:00,46.0,44.0,-100.00,North,-999,0.0,0.0,92,-99.99,,,-99.99,,2013-03-15 14:02:00,
2013-03-15 07:12:00,46.0,44.0,-100.00,North,-999,0.0,0.0,92,-99.99,,,-99.99,,2013-03-15 14:12:00,
2013-03-15 07:22:00,47.0,44.0,-100.00,North,-999,0.0,0.0,92,-99.99,,,-99.99,,2013-03-15 14:22:00,
2013-03-15 07:32:00,47.0,44.0,-100.00,North,-999,0.0,0.0,92,-99.99,,,-99.99,,2013-03-15 14:32:00,
2013-03-15 07:42:00,47.0,44.0,-100.00,North,-999,0.0,0.0,92,-99.99,,,-99.99,,2013-03-15 14:42:00,
2013-03-15 07:52:00,47.0,44.0,-100.00,North,-999,0.0,0.0,92,-99.99,,,-99.99,,2013-03-15 14:52:00,
2013-03-15 08:02:00,47.0,44.0,-100.00,North,-999,0.0,0.0,92,-99.99,,,-99.99,,2013-03-15 15:02:00,
2013-03-15 08:12:00,47.0,44.0,-100.00,North,-999,0.0,0.0,92,-99.99,,,-99.99,,2013-03-15 15:12:00,
2013-03-15 08:22:00,47.0,45.0,-100.00,North,-999,0.0,0.0,93,-99.99,,,-99.99,,2013-03-15 15:22:00,
2013-03-15 08:32:00,47.0,45.0,-100.00,North,-999,0.0,0.0,92,-99.99,,,-99.99,,2013-03-15 15:32:00,
2013-03-15 08:42:00,47.0,45.0,-100.00,North,-999,0.0,0.0,92,-99.99,,,-99.99,,2013-03-15 15:42:00,
2013-03-15 08:53:00,47.0,45.0,-100.00,North,-999,0.0,0.0,92,-99.99,,,-99.99,,2013-03-15 15:53:00,
2013-03-15 09:02:00,47.0,45.0,-100.00,North,-999,0.0,0.0,92,-99.99,,,-99.99,,2013-03-15 16:02:00,
2013-03-15 09:12:00,47.0,45.0,-100.00,North,-999,0.0,0.0,92,-99.99,,,-99.99,,2013-03-15 16:12:00,
2013-03-15 09:22:00,47.0,45.0,-100.00,North,-999,0.0,0.0,93,-99.99,,,-99.99,,2013-03-15 16:22:00,
2013-03-15 09:32:00,48.0,46.0,-100.00,North,-999,0.0,0.0,93,-99.99,,,-99.99,,2013-03-15 16:32:00,
2013-03-15 09:42:00,48.0,46.0,-100.00,North,-999,0.0,0.0,93,-99.99,,,-99.99,,2013-03-15 16:42:00,
2013-03-15 09:52:00,48.0,46.0,-100.00,North,-999,0.0,0.0,93,-99.99,,,-99.99,,2013-03-15 16:52:00,
2013-03-15 10:02:00,48.0,46.0,-100.00,SW,225,1.0,1.0,93,-99.99,,,-99.99,,2013-03-15 17:02:00,
2013-03-15 10:12:00,48.0,46.0,-100.00,SW,225,1.0,1.0,93,-99.99,,,-99.99,,2013-03-15 17:12:00,
2013-03-15 10:22:00,49.0,47.0,-100.00,North,-999,0.0,0.0,93,-99.99,,,-99.99,,2013-03-15 17:22:00,
2013-03-15 10:32:00,49.0,47.0,-100.00,North,-999,0.0,0.0,93,-99.99,,,-99.99,,2013-03-15 17:32:00,
2013-03-15 10:42:00,49.0,47.0,-100.00,North,-999,0.0,0.0,93,-99.99,,,-99.99,,2013-03-15 17:42:00,
2013-03-15 10:53:00,50.0,47.0,-100.00,North,-999,0.0,0.0,92,-99.99,,,-99.99,,2013-03-15 17:53:00,
2013-03-15 11:02:00,50.0,48.0,-100.00,North,-999,0.0,0.0,92,-99.99,,,-99.99,,2013-03-15 18:02:00,
2013-03-15 11:12:00,50.0,48.0,-100.00,North,-999,0.0,0.0,92,-99.99,,,-99.99,,2013-03-15 18:12:00,
2013-03-15 11:22:00,50.0,48.0,-100.00,North,-999,0.0,0.0,91,-99.99,,,-99.99,,2013-03-15 18:22:00,
2013-03-15 11:32:00,52.0,48.0,-100.00,North,-999,0.0,0.0,88,-99.99,,,-99.99,,2013-03-15 18:32:00,
2013-03-15 11:42:00,52.0,48.0,-100.00,North,-999,0.0,0.0,88,-99.99,,,-99.99,,2013-03-15 18:42:00,
2013-03-15 11:52:00,52.0,47.0,-100.00,North,-999,0.0,0.0,85,-99.99,,,-99.99,,2013-03-15 18:52:00,
2013-03-15 12:02:00,52.0,48.0,-100.00,North,-999,0.0,0.0,84,-99.99,,,-99.99,,2013-03-15 19:02:00,
2013-03-15 12:12:00,52.0,48.0,-100.00,North,-999,0.0,0.0,84,-99.99,,,-99.99,,2013-03-15 19:12:00,
2013-03-15 12:22:00,53.0,48.0,-100.00,SE,135,0.0,1.0,83,-99.99,,,-99.99,,2013-03-15 19:22:00,
2013-03-15 12:32:00,53.0,48.0,-100.00,North,-999,0.0,0.0,82,-99.99,,,-99.99,,2013-03-15 19:32:00,
2013-03-15 12:42:00,53.0,48.0,-100.00,North,-999,0.0,0.0,82,-99.99,,,-99.99,,2013-03-15 19:42:00,
2013-03-15 12:52:00,54.0,48.0,-100.00,North,-999,0.0,0.0,81,-99.99,,,-99.99,,2013-03-15 19:52:00,
2013-03-15 13:02:00,54.0,48.0,-100.00,NE,45,0.0,1.0,79,-99.99,,,-99.99,,2013-03-15 20:02:00,
2013-03-15 13:12:00,54.0,48.0,-100.00,NE,45,0.0,1.0,79,-99.99,,,-99.99,,2013-03-15 20:12:00,
2013-03-15 13:22:00,56.0,48.0,-100.00,North,-999,0.0,0.0,76,-99.99,,,-99.99,,2013-03-15 20:22:00,
2013-03-15 13:31:00,56.0,46.0,-100.00,SW,225,0.0,1.0,70,-99.99,,,-99.99,,2013-03-15 20:31:00,
2013-03-15 13:42:00,56.0,46.0,-100.00,SW,225,0.0,1.0,70,-99.99,,,-99.99,,2013-03-15 20:42:00,
2013-03-15 13:52:00,56.0,46.0,-100.00,West,270,1.0,2.0,69,-99.99,,,-99.99,,2013-03-15 20:52:00,
2013-03-15 14:02:00,56.0,45.0,-100.00,West,270,1.0,3.0,69,-99.99,,,-99.99,,2013-03-15 21:02:00,
2013-03-15 14:12:00,56.0,45.0,-100.00,West,270,1.0,3.0,69,-99.99,,,-99.99,,2013-03-15 21:12:00,
2013-03-15 14:22:00,55.0,45.0,-100.00,West,270,4.0,7.0,70,-99.99,,,-99.99,,2013-03-15 21:22:00,
2013-03-15 14:32:00,55.0,45.0,-100.00,West,270,2.0,3.0,69,-99.99,,,-99.99,,2013-03-15 21:32:00,
2013-03-15 14:43:00,55.0,45.0,-100.00,West,270,2.0,3.0,69,-99.99,,,-99.99,,2013-03-15 21:43:00,
2013-03-15 14:52:00,56.0,46.0,-100.00,SW,225,5.0,8.0,69,-99.99,,,-99.99,,2013-03-15 21:52:00,
2013-03-15 15:03:00,56.0,46.0,-100.00,West,270,3.0,6.0,68,-99.99,,,-99.99,,2013-03-15 22:03:00,
2013-03-15 15:13:00,56.0,46.0,-100.00,West,270,3.0,6.0,68,-99.99,,,-99.99,,2013-03-15 22:13:00,
2013-03-15 15:22:00,56.0,45.0,-100.00,West,270,3.0,4.0,65,-99.99,,,-99.99,,2013-03-15 22:22:00,
2013-03-15 15:32:00,57.0,45.0,-100.00,SW,225,2.0,7.0,65,-99.99,,,-99.99,,2013-03-15 22:32:00,
2013-03-15 15:42:00,57.0,45.0,-100.00,SW,225,2.0,7.0,65,-99.99,,,-99.99,,2013-03-15 22:42:00,
2013-03-15 15:52:00,57.0,45.0,-100.00,West,270,5.0,8.0,64,-99.99,,,-99.99,,2013-03-15 22:52:00,
2013-03-15 16:02:00,57.0,45.0,-100.00,West,270,3.0,6.0,63,-99.99,,,-99.99,,2013-03-15 23:02:00,
2013-03-15 16:12:00,57.0,45.0,-100.00,West,270,3.0,6.0,63,-99.99,,,-99.99,,2013-03-15 23:12:00,
2013-03-15 16:22:00,56.0,44.0,-100.00,SW,225,3.0,6.0,64,-99.99,,,-99.99,,2013-03-15 23:22:00,
2013-03-15 16:32:00,55.0,45.0,-100.00,SW,225,4.0,6.0,68,-99.99,,,-99.99,,2013-03-15 23:32:00,
2013-03-15 16:42:00,55.0,45.0,-100.00,SW,225,4.0,6.0,68,-99.99,,,-99.99,,2013-03-15 23:42:00,
2013-03-15 16:53:00,55.0,45.0,-100.00,SW,225,2.0,3.0,70,-99.99,,,-99.99,,2013-03-15 23:53:00,
2013-03-15 17:02:00,53.0,45.0,-100.00,West,270,4.0,6.0,75,-99.99,,,-99.99,,2013-03-16 00:02:00,
2013-03-15 17:12:00,53.0,45.0,-100.00,West,270,4.0,6.0,75,-99.99,,,-99.99,,2013-03-16 00:12:00,
2013-03-15 17:22:00,52.0,45.0,-100.00,SW,225,4.0,6.0,79,-99.99,,,-99.99,,2013-03-16 00:22:00,
2013-03-15 17:32:00,52.0,45.0,-100.00,SW,225,4.0,6.0,79,-99.99,,,-99.99,,2013-03-16 00:32:00,
2013-03-15 17:42:00,52.0,45.0,-100.00,SW,225,4.0,6.0,79,-99.99,,,-99.99,,2013-03-16 00:42:00,
2013-03-15 17:52:00,51.0,46.0,-100.00,West,270,2.0,4.0,82,-99.99,,,-99.99,,2013-03-16 00:52:00,
2013-03-15 18:02:00,50.0,45.0,-100.00,West,270,3.0,4.0,82,-99.99,,,-99.99,,2013-03-16 01:02:00,
2013-03-15 18:12:00,50.0,45.0,-100.00,West,270,3.0,4.0,82,-99.99,,,-99.99,,2013-03-16 01:12:00,
2013-03-15 18:21:00,51.0,46.0,-100.00,West,270,3.0,4.0,84,-99.99,,,-99.99,,2013-03-16 01:21:00,
2013-03-15 18:32:00,51.0,46.0,-100.00,SW,225,2.0,3.0,83,-99.99,,,-99.99,,2013-03-16 01:32:00,
2013-03-15 18:42:00,51.0,46.0,-100.00,SW,225,2.0,3.0,83,-99.99,,,-99.99,,2013-03-16 01:42:00,
2013-03-15 18:52:00,50.0,45.0,-100.00,SW,225,3.0,5.0,83,-99.99,,,-99.99,,2013-03-16 01:52:00,
2013-03-15 19:02:00,50.0,45.0,-100.00,West,270,3.0,6.0,83,-99.99,,,-99.99,,2013-03-16 02:02:00,
2013-03-15 19:12:00,50.0,45.0,-100.00,West,270,3.0,6.0,83,-99.99,,,-99.99,,2013-03-16 02:12:00,
2013-03-15 19:22:00,50.0,45.0,-100.00,SW,225,1.0,3.0,85,-99.99,,,-99.99,,2013-03-16 02:22:00,
2013-03-15 19:32:00,49.0,45.0,-100.00,SW,225,3.0,5.0,86,-99.99,,,-99.99,,2013-03-16 02:32:00,
2013-03-15 19:42:00,49.0,45.0,-100.00,SW,225,3.0,5.0,86,-99.99,,,-99.99,,2013-03-16 02:42:00,
2013-03-15 19:52:00,49.0,45.0,-100.00,SW,225,1.0,2.0,86,-99.99,,,-99.99,,2013-03-16 02:52:00,
2013-03-15 20:02:00,49.0,45.0,-100.00,SW,225,1.0,3.0,86,-99.99,,,-99.99,,2013-03-16 03:02:00,
2013-03-15 20:12:00,49.0,45.0,-100.00,SW,225,1.0,3.0,86,-99.99,,,-99.99,,2013-03-16 03:12:00,
2013-03-15 20:21:00,49.0,45.0,-100.00,West,270,3.0,5.0,86,-99.99,,,-99.99,,2013-03-16 03:21:00,
2013-03-15 20:32:00,49.0,45.0,-100.00,West,270,2.0,3.0,86,-99.99,,,-99.99,,2013-03-16 03:32:00,
2013-03-15 20:43:00,49.0,45.0,-100.00,West,270,2.0,3.0,86,-99.99,,,-99.99,,2013-03-16 03:43:00,
2013-03-15 20:53:00,48.0,44.0,-100.00,SW,225,3.0,4.0,86,-99.99,,,-99.99,,2013-03-16 03:53:00,
2013-03-15 21:02:00,48.0,44.0,-100.00,SW,225,3.0,6.0,87,-99.99,,,-99.99,,2013-03-16 04:02:00,
2013-03-15 21:12:00,48.0,44.0,-100.00,SW,225,3.0,6.0,87,-99.99,,,-99.99,,2013-03-16 04:12:00,
2013-03-15 21:22:00,48.0,44.0,-100.00,West,270,3.0,4.0,87,-99.99,,,-99.99,,2013-03-16 04:22:00,
2013-03-15 21:32:00,47.0,44.0,-100.00,SW,225,3.0,5.0,88,-99.99,,,-99.99,,2013-03-16 04:32:00,
2013-03-15 21:42:00,47.0,44.0,-100.00,SW,225,3.0,5.0,88,-99.99,,,-99.99,,2013-03-16 04:42:00,
2013-03-15 21:53:00,47.0,44.0,-100.00,West,270,2.0,3.0,88,-99.99,,,-99.99,,2013-03-16 04:53:00,
2013-03-15 22:02:00,47.0,44.0,-100.00,SW,225,3.0,4.0,88,-99.99,,,-99.99,,2013-03-16 05:02:00,
2013-03-15 22:12:00,47.0,44.0,-100.00,SW,225,3.0,4.0,88,-99.99,,,-99.99,,2013-03-16 05:12:00,
2013-03-15 22:21:00,47.0,43.0,-100.00,NW,315,1.0,3.0,88,-99.99,,,-99.99,,2013-03-16 05:21:00,
2013-03-15 22:32:00,47.0,43.0,-100.00,West,270,3.0,6.0,88,-99.99,,,-99.99,,2013-03-16 05:32:00,
2013-03-15 22:42:00,47.0,43.0,-100.00,West,270,3.0,6.0,88,-99.99,,,-99.99,,2013-03-16 05:42:00,
2013-03-15 22:53:00,46.0,43.0,-100.00,SW,225,1.0,3.0,88,-99.99,,,-99.99,,2013-03-16 05:53:00,
2013-03-15 23:02:00,46.0,43.0,-100.00,West,270,0.0,1.0,88,-99.99,,,-99.99,,2013-03-16 06:02:00,
2013-03-15 23:12:00,46.0,43.0,-100.00,West,270,0.0,1.0,88,-99.99,,,-99.99,,2013-03-16 06:12:00,
2013-03-15 23:21:00,46.0,43.0,-100.00,North,-999,0.0,0.0,88,-99.99,,,-99.99,,2013-03-16 06:21:00,
2013-03-15 23:32:00,46.0,43.0,-100.00,NW,315,1.0,1.0,88,-99.99,,,-99.99,,2013-03-16 06:32:00,
2013-03-15 23:42:00,46.0,43.0,-100.00,NW,315,1.0,1.0,88,-99.99,,,-99.99,,2013-03-16 06:42:00,
2013-03-15 23:52:00,46.0,43.0,-100.00,West,270,1.0,4.0,88,-99.99,,,-99.99,,2013-03-16 06:52:00,